Hourly Data Report for July 18, 2021

SWAN RIVER RCS
MANITOBA
Current Station Operator: ECCC - MSC

52°06'53.900" N
101°13'58.500" W
334.80 m
504K80K
71443
WEQ

Download Data

Hourly Data (July 2021)
Hourly Data Report for July 18, 2021
TIME
LST
Temp Definition
°C
Dew Point Definition
°C
Rel Hum Definition
%
Precip. Amount Definition
mm

Wind Dir Definition
10's deg

Wind Spd Definition
km/h
Visibility Definition
km
Stn Press Definition
kPa
Hmdx Definition


Wind Chill Definition


Weather Definition


00:00 16.0 14.4 91 0.0 4 11   97.85     LegendNANA
01:00 15.5 14.4 93 0.0 2 14   97.85     LegendNANA
02:00 15.2 14.0 92 0.0 3 11   97.83     LegendNANA
03:00 14.6 13.8 95 0.0 2 8   97.83     LegendNANA
04:00 15.1 14.2 94 0.0 2 14   97.86     LegendNANA
05:00 14.8 13.9 95 0.0 4 9   97.86     LegendNANA
06:00 15.1 14.4 96 0.0 8 7   97.88     LegendNANA
07:00 16.4 15.3 93 0.0 5 11   97.87     LegendNANA
08:00 17.7 15.6 88 0.0 5 10   97.84     LegendNANA
09:00 19.0 16.2 84 0.0 6 7   97.79     LegendNANA
10:00 20.9 16.6 76 0.0 33 6   97.76 26   LegendNANA
11:00 23.3 17.6 71 0.0 36 7   97.74 29   LegendNANA
12:00 25.7 18.3 64 0.0 29 6   97.75 32   LegendNANA
13:00 26.7 18.1 59 0.0 35 5   97.75 33   LegendNANA
14:00 28.1 18.4 56 0.0 12 9   97.74 34   LegendNANA
15:00 29.0 19.3 56 0.0 4 9   97.77 36   LegendNANA
16:00 27.2 18.9 61 0.0 4 21   97.81 34   LegendNANA
17:00 25.0 17.7 64 0.0 4 24   97.87 31   LegendNANA
18:00 22.4 17.3 73 0.0 4 23   97.94 28   LegendNANA
19:00 21.5 16.4 73 0.0 4 19   98.00 26   LegendNANA
20:00 19.7 15.6 77 0.0 5 23   98.06     LegendNANA
21:00 18.2 14.6 80 0.0 5 18   98.14     LegendNANA
22:00 16.7 14.1 85 0.0 5 15   98.17     LegendNANA
23:00 16.2 13.7 85 0.0 5 18   98.20     LegendNANA

Notes on Data Quality.

Legend

  • E = Estimated
  • M = Missing
  • NA = Not Available*
  • [empty] = Indicates an unobserved value
Date modified: